VANOK Weather Reports


time (UTC)temp
C
wind
direction
speed
KPH
gust
KPH
rain 1hr
cm
rain 24hr
cm
rain mn
cm
humidity
%
barometer
mb
20260507122728 11 289 12.9 17.7 0.00 0.00 0.00 27 1016.8
20260507120730 10 288 12.9 17.7 0.00 0.00 0.00 29 1016.8
20260507114729 10 288 12.9 17.7 0.00 0.00 0.00 30 1016.8
20260507112728 10 290 12.9 17.7 0.00 0.00 0.00 31 1016.8
20260507110728 10 297 12.9 17.7 0.00 0.00 0.00 35 1016.7
20260507104728 9 298 12.9 19.3 0.00 0.00 0.00 38 1016.6
20260507102728 10 269 9.7 17.7 0.00 0.00 0.00 38 1016.6
20260507100728 9 284 9.7 14.5 0.00 0.00 0.00 41 1016.3
20260507092728 10 146 3.2 6.4 0.00 0.00 0.00 32 1016.2
20260507090729 8 127 4.8 9.7 0.00 0.00 0.00 37 1016.2
20260507084728 9 96 4.8 8.0 0.00 0.00 0.00 35 1016.2
20260507082728 8 89 9.7 12.9 0.00 0.00 0.00 36 1016.2
20260507080728 8 92 8.0 11.3 0.00 0.00 0.00 35 1016.2
20260507074728 9 91 11.3 14.5 0.00 0.00 0.00 36 1016.2
20260507072728 8 102 11.3 17.7 0.00 0.00 0.00 40 1016.2
20260507070727 8 75 11.3 16.1 0.00 0.00 0.00 38 1016.2
20260507064728 8 59 11.3 19.3 0.00 0.00 0.00 40 1016.1
20260507062727 7 65 11.3 19.3 0.00 0.00 0.00 43 1016.0
20260507060727 7 68 12.9 17.7 0.00 0.00 0.00 44 1015.9
20260507055051 7 75 11.3 17.7 0.00 0.00 0.00 46 1015.9
20260507052727 7 62 11.3 17.7 0.00 0.00 0.00 43 1015.7
20260507050727 6 62 11.3 16.1 0.00 0.00 0.00 51 1015.7
20260507044727 5 40 8.0 14.5 0.00 0.00 0.00 55 1015.6
20260507042727 5 33 8.0 14.5 0.00 0.00 0.00 58 1015.6
20260507040728 5 42 11.3 17.7 0.00 0.00 0.00 52 1015.5
20260507034728 4 39 14.5 17.7 0.00 0.00 0.00 54 1015.5
20260507032728 4 39 14.5 17.7 0.00 0.00 0.00 57 1015.4
20260507030728 3 29 12.9 16.1 0.00 0.00 0.00 62 1015.4
20260507024727 2 26 12.9 16.1 0.00 0.00 0.00 65 1015.4
20260507022727 3 24 11.3 14.5 0.00 0.00 0.00 61 1015.3
20260507020727 2 13 11.3 14.5 0.00 0.00 0.00 64 1015.2
20260507014727 3 31 14.5 17.7 0.00 0.00 0.00 59 1015.2
20260507012727 2 15 9.7 12.9 0.00 0.00 0.00 68 1015.2
20260507010727 1 29 11.3 16.1 0.00 0.00 0.00 70 1015.1
20260507004726 4 36 16.1 17.7 0.00 0.00 0.00 59 1014.8
20260507002727 3 10 11.3 14.5 0.00 0.00 0.00 71 1014.8
20260507000727 2 49 12.9 19.3 0.00 0.00 0.00 68 1014.6
20260506234727 4 53 17.7 20.9 0.00 0.00 0.00 55 1014.6
20260506232726 4 47 17.7 20.9 0.00 0.00 0.00 52 1014.6
20260506230728 4 42 17.7 22.5 0.00 0.00 0.00 56 1014.6
20260506224726 4 40 19.3 20.9 0.00 0.00 0.00 56 1014.7
20260506222727 4 40 17.7 19.3 0.00 0.00 0.00 62 1014.6
20260506220726 4 35 17.7 20.9 0.00 0.00 0.00 61 1014.6
20260506214726 4 29 17.7 19.3 0.00 0.00 0.00 63 1014.5
20260506212726 3 18 11.3 12.9 0.00 0.00 0.00 78 1014.6
20260506210726 2 11 14.5 14.5 0.00 0.00 0.00 79 1014.5
20260506204726 2 8 14.5 16.1 0.00 0.00 0.00 76 1014.4
20260506202726 2 5 14.5 16.1 0.00 0.00 0.00 76 1014.5
20260506200726 4 353 16.1 17.7 0.00 0.00 0.00 71 1014.6
20260506194726 4 334 14.5 16.1 0.00 0.00 0.00 68 1014.7
20260506192726 5 314 14.5 17.7 0.00 0.00 0.00 64 1014.7
20260506190726 5 308 16.1 17.7 0.00 0.00 0.00 65 1014.7
20260506184725 5 304 17.7 19.3 0.00 0.00 0.00 67 1014.6
20260506182726 6 296 14.5 17.7 0.00 0.00 0.00 65 1014.6
20260506180726 6 295 14.5 17.7 0.00 0.00 0.00 62 1014.6
20260506174726 6 289 12.9 17.7 0.00 0.00 0.00 59 1014.7
20260506172724 7 288 11.3 14.5 0.00 0.00 0.00 56 1014.8
20260506170725 7 291 11.3 14.5 0.00 0.00 0.00 60 1014.8
20260506164724 7 293 12.9 17.7 0.00 0.00 0.00 58 1014.8
20260506162726 7 287 11.3 16.1 0.00 0.00 0.00 54 1014.8
20260506160725 7 280 11.3 17.7 0.00 0.00 0.00 52 1014.8
20260506154725 7 270 11.3 14.5 0.00 0.00 0.00 56 1014.9
20260506152725 7 275 9.7 14.5 0.00 0.00 0.00 56 1015.0
20260506150724 8 265 11.3 14.5 0.00 0.00 0.00 56 1015.0
20260506144724 7 271 11.3 16.1 0.00 0.00 0.00 56 1015.1
20260506142724 8 227 11.3 14.5 0.00 0.00 0.00 54 1015.2
20260506140724 8 255 12.9 16.1 0.00 0.00 0.00 54 1015.3
20260506134724 8 239 14.5 19.3 0.00 0.00 0.00 57 1015.2
20260506132724 8 244 14.5 20.9 0.00 0.00 0.00 62 1015.2
20260506130724 7 221 17.7 20.9 0.00 0.00 0.00 65 1015.4
20260506124724 8 221 16.1 20.9 0.00 0.00 0.00 62 1015.3